Regional Weather Roundup
Issued by NWS

Home | Current Version | Previous Version | Text Only | Print | Product List | Glossary Off
Versions: 1 2 3 4 5 6 7 8 9 10 11 12 13 14 15 16 17 18 19 20 21 22 23 24 25 26 27 28

000
ASUS45 KSLC 181110
RWRUT

UTAH REGIONAL WEATHER ROUNDUP
NATIONAL WEATHER SERVICE SALT LAKE CITY UT
500 AM MDT FRI APR 18 2014

UTZ001>011-023>025-181200-

NORTHERN UTAH

CITY           SKY/WX    TMP DP  RH WIND       PRES   REMARKS
HILL AFB       CLOUDY    64  22  20 S24G31    29.82R
LOGAN          CLOUDY    47  34  60 N17       29.82R
OGDEN          CLOUDY    65  24  21 S26G32    29.79S
PROVO AIRPORT  CLOUDY    57  30  35 SE15      29.90S
SALT LAKE CITY CLOUDY    63  26  24 S17       29.82R
VERNAL         MOCLDY    44  25  47 NW5       29.98F
WENDOVER       CLOUDY    63  30  29 CALM      29.82R
HEBER CITY     MOCLDY    45  28  53 CALM      29.93S
WEST JORDAN    CLEAR     59  32  36 SE15      29.86S

$$

UTZ012>022-026-027-181200-

SOUTHERN UTAH

CITY           SKY/WX    TMP DP  RH WIND       PRES   REMARKS
BRYCE CANYON   MOCLDY    29  23  78 W5        30.09F WCI  24
CEDAR CITY     CLOUDY    50  19  29 CALM      29.95F
MILFORD        CLOUDY    52  19  27 SW9       29.92F
MOAB/CYNLANDS  CLEAR     49  23  36 SE6       29.96S
PRICE          MOCLDY    43  20  39 N7        30.01S
ST GEORGE      PTSUNNY   59  19  21 E7        29.88S

$$

REGIONAL REPORTS     COLORADO/ARIZONA

CITY           SKY/WX    TMP DP  RH WIND       PRES   REMARKS
CRAIG, CO      CLEAR     32  24  72 CALM      30.05S
GRAND JUNCTION CLEAR     46  26  45 E14       30.01S
RIFLE          CLEAR     35  27  72 CALM      30.08S
MONTROSE       CLEAR     40  28  62 SE8       30.10R WCI  34
CORTEZ         CLEAR     33  23  66 CALM      30.10F
PAGE, AZ       MOCLDY    58  20  22 SE6       29.94F
GRAND CANYON   MOCLDY    30  14  51 E3        30.07F
KINGMAN        MOCLDY    57  18  21 SE9       29.90R
FLAGSTAFF      MOCLDY    35  19  52 CALM      30.09S

$$

REGIONAL REPORTS    NEVADA/IDAHO/WYOMING

CITY           SKY/WX    TMP DP  RH WIND       PRES   REMARKS
LAS VEGAS, NV  CLOUDY    70  23  17 S8        29.76R
ELY            PTCLDY    47  20  34 S13       29.93F
ELKO           CLOUDY    51  42  71 SW5       29.89R
POCATELLO, ID  MOCLDY    50  42  74 SW25      29.86R
BURLEY         LGT RAIN  45  42  89 W21G30    29.90R
EVANSTON, WY   MOCLDY    45  24  43 W6        29.94F
ROCK SPRINGS   CLOUDY    45  21  38 S7        29.95S

$$



USA.gov is the U.S. government's official web portal to all federal, state and local government web resources and services.